Location: Misciano
(43.5000°N, 11.9500°E)
Time: 04:48:06
(UTC+00:00)

Cosmos 1437 Rocket - Pass Details

Date: 13 August 2020
Orbit: 505 x 563 km, 81.2° (Epoch: 19 September)

Event Time Altitude Azimuth Distance (km) Brightness Sun altitude
Rises 19:43:30 0° 3° (N) 2,626 6.8 -14.4°
Reaches altitude 10° 19:46:01 10° 19° (NNE) 1,730 5.6 -14.8°
Maximum altitude 19:49:00 22° 71° (ENE) 1,157 4.2 -15.2°
Enters shadow 19:49:34 21° 85° (E) 1,182 4.1 -15.3°
